AAL1216 KIAH-KOMA

Flight info

Callsign AAL1216
Flight time N/A
Altitude 36000
Route STYCK8 WTSON BYP HTHWY TIMMO1
Aircraft B738/M-SDE2E3FGHIRWXY/LB1

Departure

Time N/A
Airport George Bush Intercontinental Airport (KIAH)

Arrival

Time 2026-04-19 03:53
Airport Eppley Airfield (KOMA)
Time Latitude Longitude Altitude Speed Heading
2026-04-19 03:36 40.50583 -96.15944 21741 ft 288 kts 356°
2026-04-19 03:36 40.52575 -96.15639 21472 ft 288 kts 356°
2026-04-19 03:37 40.54571 -96.15370 21212 ft 287 kts 355°
2026-04-19 03:37 40.56541 -96.15134 20961 ft 288 kts 355°
2026-04-19 03:37 40.58541 -96.14895 20696 ft 288 kts 355°
2026-04-19 03:37 40.60549 -96.14653 20432 ft 289 kts 355°
2026-04-19 03:38 40.62560 -96.14406 20187 ft 290 kts 355°
2026-04-19 03:38 40.64572 -96.14159 19940 ft 290 kts 355°
2026-04-19 03:38 40.66564 -96.13906 19686 ft 291 kts 355°
2026-04-19 03:38 40.68577 -96.13617 19437 ft 291 kts 356°
2026-04-19 03:39 40.70591 -96.13319 19190 ft 291 kts 356°
2026-04-19 03:39 40.72601 -96.13020 18945 ft 290 kts 356°
2026-04-19 03:39 40.74613 -96.12723 18708 ft 289 kts 356°
2026-04-19 03:39 40.76586 -96.12432 18483 ft 289 kts 356°
2026-04-19 03:40 40.78583 -96.12139 18193 ft 288 kts 356°
2026-04-19 03:40 40.80578 -96.11847 17920 ft 288 kts 356°
2026-04-19 03:40 40.82576 -96.11554 17642 ft 288 kts 356°
2026-04-19 03:40 40.84566 -96.11263 17374 ft 288 kts 356°
2026-04-19 03:41 40.86563 -96.10970 17102 ft 288 kts 356°
2026-04-19 03:41 40.88562 -96.10615 16820 ft 293 kts
2026-04-19 03:41 40.90511 -96.09748 16560 ft 305 kts 13°
2026-04-19 03:41 40.92415 -96.08429 16337 ft 314 kts 21°
2026-04-19 03:42 40.94245 -96.06812 16077 ft 316 kts 23°
2026-04-19 03:42 40.96068 -96.05172 15823 ft 317 kts 23°
2026-04-19 03:42 40.97895 -96.03530 15584 ft 318 kts 24°
2026-04-19 03:42 40.99730 -96.01887 15319 ft 319 kts 24°
2026-04-19 03:43 41.01578 -96.00237 15054 ft 320 kts 24°
2026-04-19 03:43 41.03404 -95.98609 14813 ft 320 kts 24°
2026-04-19 03:43 41.05254 -95.96959 14543 ft 321 kts 24°
2026-04-19 03:43 41.07111 -95.95303 14297 ft 321 kts 24°
2026-04-19 03:44 41.08971 -95.93646 14048 ft 321 kts 24°
2026-04-19 03:44 41.10831 -95.91989 13780 ft 321 kts 24°
2026-04-19 03:44 41.12661 -95.90358 13500 ft 320 kts 24°
2026-04-19 03:44 41.14528 -95.88784 13219 ft 315 kts 20°
2026-04-19 03:45 41.16439 -95.87422 12951 ft 309 kts 18°
2026-04-19 03:45 41.18316 -95.86062 12640 ft 309 kts 23°
2026-04-19 03:45 41.20095 -95.84394 12157 ft 316 kts 28°
2026-04-19 03:45 41.21832 -95.82573 11727 ft 319 kts 31°
2026-04-19 03:46 41.23539 -95.80713 11343 ft 316 kts 28°
2026-04-19 03:46 41.25414 -95.79330 10920 ft 300 kts
2026-04-19 03:46 41.27413 -95.78944 10283 ft 294 kts 351°
2026-04-19 03:46 41.29372 -95.79495 9833 ft 283 kts 332°
2026-04-19 03:47 41.30904 -95.81008 9382 ft 275 kts 305°
2026-04-19 03:47 41.31624 -95.83374 8214 ft 283 kts 281°
2026-04-19 03:47 41.31489 -95.86063 6532 ft 307 kts 255°
2026-04-19 03:47 41.30278 -95.88524 4777 ft 334 kts 225°
2026-04-19 03:48 41.28434 -95.90350 4187 ft 317 kts 216°
2026-04-19 03:48 41.26582 -95.91745 3693 ft 301 kts 209°
2026-04-19 03:48 41.24646 -95.92737 3162 ft 292 kts 199°
2026-04-19 03:48 41.22690 -95.93284 2695 ft 283 kts 188°
2026-04-19 03:49 41.20817 -95.93019 2470 ft 265 kts 159°
2026-04-19 03:49 41.19427 -95.91705 2498 ft 237 kts 129°
2026-04-19 03:49 41.18760 -95.89869 2490 ft 208 kts 96°
2026-04-19 03:49 41.18878 -95.88070 2307 ft 190 kts 65°
2026-04-19 03:50 41.19528 -95.86644 2313 ft 177 kts 41°
2026-04-19 03:50 41.20541 -95.85750 2443 ft 175 kts 16°
2026-04-19 03:50 41.21708 -95.85400 2341 ft 172 kts
2026-04-19 03:50 41.22881 -95.85232 2077 ft 164 kts
2026-04-19 03:51 41.23982 -95.85211 1735 ft 153 kts 353°
2026-04-19 03:51 41.24990 -95.85450 1648 ft 147 kts 344°
2026-04-19 03:51 41.25975 -95.85829 1510 ft 146 kts 336°
2026-04-19 03:51 41.26862 -95.86405 1402 ft 142 kts 332°
2026-04-19 03:52 41.27658 -95.87070 1248 ft 129 kts 325°
2026-04-19 03:52 41.28420 -95.87794 1154 ft 142 kts 326°
2026-04-19 03:52 41.29240 -95.88572 1018 ft 144 kts 323°
2026-04-19 03:52 41.30001 -95.89301 982 ft 120 kts 327°
2026-04-19 03:53 41.30367 -95.89642 991 ft 34 kts 324°
2026-04-19 03:53 41.30520 -95.89796 991 ft 21 kts 316°
2026-04-19 03:53 41.30541 -95.89876 987 ft 0 kts 262°
2026-04-19 03:53 41.30540 -95.89878 986 ft 0 kts 260°
2026-04-19 03:54 41.30532 -95.89904 984 ft 8 kts 241°
2026-04-19 03:54 41.30522 -95.89925 988 ft 2 kts 237°
2026-04-19 03:54 41.30494 -95.89980 986 ft 12 kts 234°
2026-04-19 03:54 41.30409 -95.89995 985 ft 19 kts 131°
2026-04-19 03:55 41.30287 -95.89857 991 ft 28 kts 145°
2026-04-19 03:55 41.30201 -95.89776 987 ft 14 kts 210°
2026-04-19 03:55 41.30168 -95.89805 987 ft 2 kts 225°
2026-04-19 03:55 41.30166 -95.89809 988 ft 0 kts 229°